• In Hungary
  • List of Countries
  • For 7 days
  • Water Temperature
  • Satellite Maps
  • Weather Map
  • News
  • Weather Widgets
  • user-avatar
    Login

    Hourly Weather Dallas

    Today, 24 October, Tuesday

    Time Temperature Precipitation Wind Pressure Humidity
    00:00 +19°C° 0 mm 6 mps 756 mmHg 39%
    01:00 +17°C° 0 mm 6 mps 756 mmHg 36%
    02:00 +17°C° 0 mm 5 mps 757 mmHg 34%
    03:00 +16°C° 0 mm 5 mps 757 mmHg 32%
    04:00 +16°C° 0 mm 5 mps 757 mmHg 33%
    05:00 +15°C° 0 mm 4 mps 758 mmHg 34%
    06:00 +14°C° 0 mm 4 mps 758 mmHg 35%
    07:00 +15°C° 0 mm 5 mps 758 mmHg 33%
    08:00 +17°C° 0 mm 6 mps 758 mmHg 32%
    09:00 +18°C° 0 mm 7 mps 759 mmHg 31%
    10:00 +20°C° 0 mm 8 mps 758 mmHg 28%
    11:00 +21°C° 0 mm 8 mps 758 mmHg 26%
    12:00 +22°C° 0 mm 9 mps 758 mmHg 23%
    13:00 +22°C° 0 mm 9 mps 757 mmHg 23%
    14:00 +21°C° 0 mm 9 mps 757 mmHg 23%
    15:00 +21°C° 0 mm 9 mps 756 mmHg 23%
    16:00 +20°C° 0 mm 8 mps 756 mmHg 25%
    17:00 +19°C° 0 mm 6 mps 756 mmHg 27%
    18:00 +17°C° 0 mm 5 mps 756 mmHg 29%
    19:00 +16°C° 0 mm 5 mps 757 mmHg 30%
    20:00 +15°C° 0 mm 4 mps 757 mmHg 31%
    21:00 +16°C° 0 mm 3 mps 758 mmHg 32%
    22:00 +14°C° 0 mm 3 mps 758 mmHg 33%
    23:00 +14°C° 0 mm 3 mps 758 mmHg 34%

    Tomorrow, 25 October, Wednesday

    Time Temperature Precipitation Wind Pressure Humidity
    00:00 +14°C° 0 mm 2 mps 758 mmHg 35%
    01:00 +14°C° 0 mm 2 mps 757 mmHg 35%
    02:00 +14°C° 0 mm 2 mps 757 mmHg 36%
    03:00 +13°C° 0 mm 2 mps 757 mmHg 36%
    04:00 +13°C° 0 mm 2 mps 757 mmHg 36%
    05:00 +13°C° 0 mm 2 mps 756 mmHg 37%
    06:00 +12°C° 0 mm 3 mps 756 mmHg 37%
    07:00 +13°C° 0 mm 3 mps 756 mmHg 35%
    08:00 +14°C° 0 mm 3 mps 756 mmHg 33%
    09:00 +17°C° 0 mm 3 mps 756 mmHg 31%
    10:00 +19°C° 0 mm 3 mps 756 mmHg 28%
    11:00 +21°C° 0 mm 3 mps 755 mmHg 24%
    12:00 +23°C° 0 mm 4 mps 754 mmHg 21%
    13:00 +24°C° 0 mm 3 mps 753 mmHg 21%
    14:00 +25°C° 0 mm 3 mps 752 mmHg 21%
    15:00 +26°C° 0 mm 3 mps 751 mmHg 22%
    16:00 +25°C° 0 mm 3 mps 751 mmHg 25%
    17:00 +23°C° 0 mm 2 mps 750 mmHg 28%
    18:00 +21°C° 0 mm 2 mps 750 mmHg 31%
    19:00 +20°C° 0 mm 3 mps 750 mmHg 33%
    20:00 +20°C° 0 mm 3 mps 750 mmHg 34%
    21:00 +19°C° 0 mm 4 mps 749 mmHg 36%
    22:00 +19°C° 0 mm 4 mps 749 mmHg 37%
    23:00 +18°C° 0 mm 4 mps 749 mmHg 38%

    Day after tomorrow, 26 October, Thursday

    Time Temperature Precipitation Wind Pressure Humidity
    00:00 +18°C° 0 mm 4 mps 748 mmHg 38%
    01:00 +17°C° 0 mm 5 mps 748 mmHg 39%
    02:00 +16°C° 0 mm 5 mps 748 mmHg 39%
    03:00 +16°C° 0 mm 5 mps 747 mmHg 40%
    04:00 +16°C° 0 mm 5 mps 747 mmHg 39%
    05:00 +16°C° 0 mm 5 mps 747 mmHg 39%
    06:00 +15°C° 0 mm 5 mps 746 mmHg 39%
    07:00 +17°C° 0 mm 6 mps 746 mmHg 38%
    08:00 +18°C° 0 mm 7 mps 747 mmHg 36%
    09:00 +20°C° 0 mm 8 mps 747 mmHg 35%
    10:00 +22°C° 0 mm 8 mps 746 mmHg 33%
    11:00 +24°C° 0 mm 8 mps 746 mmHg 30%
    12:00 +27°C° 0 mm 9 mps 745 mmHg 28%
    13:00 +27°C° 0 mm 9 mps 744 mmHg 28%
    14:00 +28°C° 0 mm 8 mps 744 mmHg 28%
    15:00 +29°C° 0 mm 8 mps 743 mmHg 28%
    16:00 +27°C° 0 mm 8 mps 743 mmHg 31%
    17:00 +26°C° 0 mm 7 mps 743 mmHg 34%
    18:00 +23°C° 0 mm 6 mps 743 mmHg 37%
    19:00 +23°C° 0 mm 6 mps 743 mmHg 39%
    20:00 +22°C° 0 mm 6 mps 744 mmHg 40%
    21:00 +21°C° 0 mm 6 mps 744 mmHg 41%
    22:00 +21°C° 0 mm 6 mps 745 mmHg 44%
    23:00 +20°C° 0 mm 6 mps 746 mmHg 47%

    27 October, Friday

    Time Temperature Precipitation Wind Pressure Humidity
    00:00 +20°C° 0 mm 5 mps 746 mmHg 50%
    01:00 +17°C° 0 mm 6 mps 747 mmHg 48%
    02:00 +16°C° 0 mm 8 mps 747 mmHg 47%
    03:00 +15°C° 0 mm 9 mps 748 mmHg 45%
    04:00 +13°C° 0 mm 9 mps 749 mmHg 42%
    05:00 +12°C° 0 mm 9 mps 749 mmHg 40%
    06:00 +11°C° 0 mm 9 mps 750 mmHg 37%
    07:00 +11°C° 0 mm 9 mps 751 mmHg 37%
    08:00 +11°C° 0 mm 9 mps 753 mmHg 38%
    09:00 +11°C° 0 mm 10 mps 754 mmHg 39%
    10:00 +11°C° 0.5 mm 9 mps 754 mmHg 39%
    11:00 +11°C° 0.5 mm 8 mps 754 mmHg 40%
    12:00 +11°C° 0.5 mm 7 mps 754 mmHg 40%
    13:00 +11°C° 0 mm 7 mps 754 mmHg 37%
    14:00 +12°C° 0 mm 8 mps 754 mmHg 35%
    15:00 +13°C° 0 mm 8 mps 753 mmHg 32%
    16:00 +12°C° 0 mm 7 mps 754 mmHg 32%
    17:00 +11°C° 0 mm 6 mps 754 mmHg 32%
    18:00 +10°C° 0 mm 6 mps 754 mmHg 33%
    19:00 +9°C° 0 mm 6 mps 755 mmHg 33%
    20:00 +9°C° 0 mm 5 mps 756 mmHg 34%
    21:00 +8°C° 0 mm 5 mps 756 mmHg 34%
    22:00 +8°C° 0 mm 5 mps 756 mmHg 36%
    23:00 +7°C° 0 mm 5 mps 756 mmHg 37%

    28 October, Saturday

    Time Temperature Precipitation Wind Pressure Humidity
    00:00 +7°C° 0 mm 4 mps 756 mmHg 39%
    01:00 +6°C° 0 mm 4 mps 756 mmHg 40%
    02:00 +6°C° 0 mm 4 mps 756 mmHg 41%
    03:00 +6°C° 0 mm 4 mps 756 mmHg 42%
    04:00 +5°C° 0 mm 4 mps 757 mmHg 42%
    05:00 +5°C° 0 mm 4 mps 757 mmHg 43%
    06:00 +5°C° 0 mm 5 mps 757 mmHg 43%
    07:00 +5°C° 0 mm 5 mps 757 mmHg 41%
    08:00 +5°C° 0 mm 6 mps 758 mmHg 39%
    09:00 +6°C° 0 mm 7 mps 758 mmHg 37%
    10:00 +8°C° 0 mm 7 mps 758 mmHg 35%
    11:00 +9°C° 0 mm 7 mps 757 mmHg 33%
    12:00 +10°C° 0 mm 7 mps 757 mmHg 31%
    13:00 +10°C° 0 mm 7 mps 756 mmHg 28%
    14:00 +11°C° 0 mm 7 mps 756 mmHg 26%
    15:00 +11°C° 0 mm 7 mps 755 mmHg 24%
    16:00 +10°C° 0 mm 6 mps 755 mmHg 25%
    17:00 +10°C° 0 mm 5 mps 755 mmHg 26%
    18:00 +10°C° 0 mm 4 mps 755 mmHg 26%
    19:00 +8°C° 0 mm 4 mps 755 mmHg 27%
    20:00 +9°C° 0 mm 3 mps 756 mmHg 27%
    21:00 +8°C° 0 mm 3 mps 756 mmHg 28%
    22:00 +8°C° 0 mm 2 mps 756 mmHg 28%
    23:00 +7°C° 0 mm 2 mps 755 mmHg 28%

    29 October, Sunday

    Time Temperature Precipitation Wind Pressure Humidity
    00:00 +8°C° 0 mm 1 mps 755 mmHg 29%
    01:00 +7°C° 0 mm 1 mps 755 mmHg 29%
    02:00 +7°C° 0 mm 1 mps 754 mmHg 29%
    03:00 +7°C° 0 mm 1 mps 754 mmHg 29%
    04:00 +7°C° 0 mm 1 mps 754 mmHg 29%
    05:00 +7°C° 0 mm 1 mps 754 mmHg 29%
    06:00 +7°C° 0 mm 1 mps 754 mmHg 29%
    07:00 +7°C° 0 mm 2 mps 753 mmHg 28%
    08:00 +9°C° 0 mm 3 mps 753 mmHg 27%
    09:00 +10°C° 0 mm 4 mps 753 mmHg 27%
    10:00 +12°C° 0 mm 4 mps 752 mmHg 25%
    11:00 +14°C° 0 mm 5 mps 752 mmHg 24%
    12:00 +16°C° 0 mm 5 mps 751 mmHg 23%
    13:00 +19°C° 0 mm 5 mps 750 mmHg 24%
    14:00 +20°C° 0 mm 4 mps 749 mmHg 24%
    15:00 +21°C° 0 mm 4 mps 748 mmHg 25%
    16:00 +20°C° 0 mm 3 mps 748 mmHg 29%
    17:00 +18°C° 0 mm 2 mps 748 mmHg 32%
    18:00 +18°C° 0 mm 1 mps 748 mmHg 36%
    19:00 +16°C° 0 mm 1 mps 748 mmHg 38%
    20:00 +16°C° 0 mm 1 mps 748 mmHg 39%
    21:00 +15°C° 0 mm 1 mps 748 mmHg 41%
    22:00 +15°C° 0 mm 1 mps 748 mmHg 41%
    23:00 +14°C° 0 mm 1 mps 748 mmHg 42%

    30 October, Monday

    Time Temperature Precipitation Wind Pressure Humidity
    00:00 +14°C° 0 mm 1 mps 748 mmHg 43%
    01:00 +14°C° 0 mm 2 mps 748 mmHg 43%
    02:00 +13°C° 0 mm 2 mps 748 mmHg 43%
    03:00 +13°C° 0 mm 2 mps 748 mmHg 44%
    04:00 +13°C° 0 mm 2 mps 748 mmHg 44%
    05:00 +13°C° 0 mm 2 mps 748 mmHg 44%
    06:00 +12°C° 0 mm 2 mps 748 mmHg 45%
    07:00 +14°C° 0 mm 2 mps 748 mmHg 43%
    08:00 +15°C° 0 mm 2 mps 749 mmHg 40%
    09:00 +17°C° 0 mm 3 mps 749 mmHg 38%
    10:00 +19°C° 0 mm 3 mps 749 mmHg 35%
    11:00 +21°C° 0 mm 3 mps 749 mmHg 31%
    12:00 +23°C° 0 mm 4 mps 748 mmHg 28%
    13:00 +25°C° 0 mm 4 mps 748 mmHg 27%
    14:00 +25°C° 0 mm 5 mps 747 mmHg 26%
    15:00 +26°C° 0 mm 5 mps 747 mmHg 26%
    16:00 +25°C° 0 mm 5 mps 747 mmHg 30%
    17:00 +22°C° 0 mm 5 mps 747 mmHg 34%
    18:00 +20°C° 0 mm 5 mps 747 mmHg 39%
    19:00 +20°C° 0 mm 5 mps 747 mmHg 42%
    20:00 +19°C° 0 mm 5 mps 747 mmHg 45%
    21:00 +17°C° 0 mm 5 mps 748 mmHg 48%
    22:00 +17°C° 0 mm 5 mps 748 mmHg 51%
    23:00 +17°C° 0 mm 5 mps 748 mmHg 54%
    Show more